owner,sensor,date,latitude,longitude,vertical_datum,sea_water_practical_salinity,qcFlag 
ENP,ioos.station.NOAA.NDBC:TPEF1:1,2016-06-01T00:00:00Z,25.4100,-80.9640,1.5,2.4,1111122 
ENP,ioos.station.NOAA.NDBC:TPEF1:1,2016-06-01T03:00:00Z,25.4100,-80.9640,1.5,2.49,1111122 
ENP,ioos.station.NOAA.NDBC:TPEF1:1,2016-06-01T06:00:00Z,25.4100,-80.9640,1.5,2.32,1111122 
ENP,ioos.station.NOAA.NDBC:TPEF1:1,2016-06-01T07:00:00Z,25.4100,-80.9640,1.5,2.32,1111122 
ENP,ioos.station.NOAA.NDBC:TPEF1:1,2016-06-01T08:00:00Z,25.4100,-80.9640,1.5,2.32,1111122 
ENP,ioos.station.NOAA.NDBC:TPEF1:1,2016-06-01T09:00:00Z,25.4100,-80.9640,1.5,2.32,1111122 
ENP,ioos.station.NOAA.NDBC:TPEF1:1,2016-06-01T10:00:00Z,25.4100,-80.9640,1.5,2.32,1111122 
ENP,ioos.station.NOAA.NDBC:TPEF1:1,2016-06-01T11:00:00Z,25.4100,-80.9640,1.5,2.32,1111122 
ENP,ioos.station.NOAA.NDBC:TPEF1:1,2016-06-01T12:00:00Z,25.4100,-80.9640,1.5,2.32,1111122 
ENP,ioos.station.NOAA.NDBC:TPEF1:1,2016-06-01T13:00:00Z,25.4100,-80.9640,1.5,2.32,1111122 
ENP,ioos.station.NOAA.NDBC:TPEF1:1,2016-06-01T14:00:00Z,25.4100,-80.9640,1.5,2.35,1111122 
ENP,ioos.station.NOAA.NDBC:TPEF1:1,2016-06-01T15:00:00Z,25.4100,-80.9640,1.5,2.37,1111122 
ENP,ioos.station.NOAA.NDBC:TPEF1:1,2016-06-01T16:00:00Z,25.4100,-80.9640,1.5,2.39,1111122 
ENP,ioos.station.NOAA.NDBC:TPEF1:1,2016-06-01T17:00:00Z,25.4100,-80.9640,1.5,2.39,1111122 
ENP,ioos.station.NOAA.NDBC:TPEF1:1,2016-06-01T18:00:00Z,25.4100,-80.9640,1.5,2.39,1111122 
ENP,ioos.station.NOAA.NDBC:TPEF1:1,2016-06-01T19:00:00Z,25.4100,-80.9640,1.5,2.38,1111122 
ENP,ioos.station.NOAA.NDBC:TPEF1:1,2016-06-01T20:00:00Z,25.4100,-80.9640,1.5,2.38,1111122 
ENP,ioos.station.NOAA.NDBC:TPEF1:1,2016-06-01T21:00:00Z,25.4100,-80.9640,1.5,2.39,1111122 
ENP,ioos.station.NOAA.NDBC:TPEF1:1,2016-06-01T22:00:00Z,25.4100,-80.9640,1.5,2.39,1111122 
ENP,ioos.station.NOAA.NDBC:TPEF1:1,2016-06-01T23:00:00Z,25.4100,-80.9640,1.5,2.39,1111122 
ENP,ioos.station.NOAA.NDBC:TPEF1:1,2016-06-02T00:00:00Z,25.4100,-80.9640,1.5,2.39,1111122 
ENP,ioos.station.NOAA.NDBC:TPEF1:1,2016-06-02T03:00:00Z,25.4100,-80.9640,1.5,2.4,1111122 
ENP,ioos.station.NOAA.NDBC:TPEF1:1,2016-06-02T06:00:00Z,25.4100,-80.9640,1.5,2.27,1111122 
ENP,ioos.station.NOAA.NDBC:TPEF1:1,2016-06-02T07:00:00Z,25.4100,-80.9640,1.5,2.27,1111122 
ENP,ioos.station.NOAA.NDBC:TPEF1:1,2016-06-02T08:00:00Z,25.4100,-80.9640,1.5,2.27,1111122 
ENP,ioos.station.NOAA.NDBC:TPEF1:1,2016-06-02T10:00:00Z,25.4100,-80.9640,1.5,2.28,1111122 
ENP,ioos.station.NOAA.NDBC:TPEF1:1,2016-06-02T11:00:00Z,25.4100,-80.9640,1.5,2.3,1111122 
ENP,ioos.station.NOAA.NDBC:TPEF1:1,2016-06-02T12:00:00Z,25.4100,-80.9640,1.5,2.3,1111122 
ENP,ioos.station.NOAA.NDBC:TPEF1:1,2016-06-02T13:00:00Z,25.4100,-80.9640,1.5,2.3,1111122 
ENP,ioos.station.NOAA.NDBC:TPEF1:1,2016-06-02T14:00:00Z,25.4100,-80.9640,1.5,2.31,1111122 
ENP,ioos.station.NOAA.NDBC:TPEF1:1,2016-06-02T15:00:00Z,25.4100,-80.9640,1.5,2.32,1111122 
ENP,ioos.station.NOAA.NDBC:TPEF1:1,2016-06-02T16:00:00Z,25.4100,-80.9640,1.5,2.33,1111122 
ENP,ioos.station.NOAA.NDBC:TPEF1:1,2016-06-02T17:00:00Z,25.4100,-80.9640,1.5,2.35,1111122 
ENP,ioos.station.NOAA.NDBC:TPEF1:1,2016-06-02T18:00:00Z,25.4100,-80.9640,1.5,2.36,1111122 
ENP,ioos.station.NOAA.NDBC:TPEF1:1,2016-06-02T19:00:00Z,25.4100,-80.9640,1.5,2.35,1111122 
ENP,ioos.station.NOAA.NDBC:TPEF1:1,2016-06-02T20:00:00Z,25.4100,-80.9640,1.5,2.35,1111122 
ENP,ioos.station.NOAA.NDBC:TPEF1:1,2016-06-02T21:00:00Z,25.4100,-80.9640,1.5,2.33,1111122 
ENP,ioos.station.NOAA.NDBC:TPEF1:1,2016-06-02T22:00:00Z,25.4100,-80.9640,1.5,2.33,1111122 
ENP,ioos.station.NOAA.NDBC:TPEF1:1,2016-06-02T23:00:00Z,25.4100,-80.9640,1.5,2.33,1111122 
ENP,ioos.station.NOAA.NDBC:TPEF1:1,2016-06-03T00:00:00Z,25.4100,-80.9640,1.5,2.33,1111122 
ENP,ioos.station.NOAA.NDBC:TPEF1:1,2016-06-03T03:00:00Z,25.4100,-80.9640,1.5,2.33,1111122 
ENP,ioos.station.NOAA.NDBC:TPEF1:1,2016-06-03T06:00:00Z,25.4100,-80.9640,1.5,2.31,1111122 
ENP,ioos.station.NOAA.NDBC:TPEF1:1,2016-06-03T07:00:00Z,25.4100,-80.9640,1.5,2.27,1111122 
ENP,ioos.station.NOAA.NDBC:TPEF1:1,2016-06-03T08:00:00Z,25.4100,-80.9640,1.5,2.24,1111122 
ENP,ioos.station.NOAA.NDBC:TPEF1:1,2016-06-03T09:00:00Z,25.4100,-80.9640,1.5,2.24,1111122 
ENP,ioos.station.NOAA.NDBC:TPEF1:1,2016-06-03T10:00:00Z,25.4100,-80.9640,1.5,2.23,1111122 
ENP,ioos.station.NOAA.NDBC:TPEF1:1,2016-06-03T11:00:00Z,25.4100,-80.9640,1.5,2.23,1111122 
ENP,ioos.station.NOAA.NDBC:TPEF1:1,2016-06-03T12:00:00Z,25.4100,-80.9640,1.5,2.23,1111122 
ENP,ioos.station.NOAA.NDBC:TPEF1:1,2016-06-03T13:00:00Z,25.4100,-80.9640,1.5,2.23,1111122 
ENP,ioos.station.NOAA.NDBC:TPEF1:1,2016-06-03T14:00:00Z,25.4100,-80.9640,1.5,2.23,1111122 
ENP,ioos.station.NOAA.NDBC:TPEF1:1,2016-06-03T15:00:00Z,25.4100,-80.9640,1.5,2.24,1111122 
ENP,ioos.station.NOAA.NDBC:TPEF1:1,2016-06-03T16:00:00Z,25.4100,-80.9640,1.5,2.25,1111122 
ENP,ioos.station.NOAA.NDBC:TPEF1:1,2016-06-03T17:00:00Z,25.4100,-80.9640,1.5,2.26,1111122 
ENP,ioos.station.NOAA.NDBC:TPEF1:1,2016-06-03T18:00:00Z,25.4100,-80.9640,1.5,2.25,1111122 
ENP,ioos.station.NOAA.NDBC:TPEF1:1,2016-06-03T19:00:00Z,25.4100,-80.9640,1.5,2.24,1111122 
ENP,ioos.station.NOAA.NDBC:TPEF1:1,2016-06-03T20:00:00Z,25.4100,-80.9640,1.5,2.21,1111122 
ENP,ioos.station.NOAA.NDBC:TPEF1:1,2016-06-03T21:00:00Z,25.4100,-80.9640,1.5,2.18,1111122 
ENP,ioos.station.NOAA.NDBC:TPEF1:1,2016-06-03T22:00:00Z,25.4100,-80.9640,1.5,2.18,1111122 
ENP,ioos.station.NOAA.NDBC:TPEF1:1,2016-06-03T23:00:00Z,25.4100,-80.9640,1.5,2.18,1111122 
ENP,ioos.station.NOAA.NDBC:TPEF1:1,2016-06-04T00:00:00Z,25.4100,-80.9640,1.5,2.18,1111122 
ENP,ioos.station.NOAA.NDBC:TPEF1:1,2016-06-04T03:00:00Z,25.4100,-80.9640,1.5,2.19,1111122 
ENP,ioos.station.NOAA.NDBC:TPEF1:1,2016-06-04T06:00:00Z,25.4100,-80.9640,1.5,2.2,1111122 
ENP,ioos.station.NOAA.NDBC:TPEF1:1,2016-06-04T07:00:00Z,25.4100,-80.9640,1.5,2.07,1111122 
ENP,ioos.station.NOAA.NDBC:TPEF1:1,2016-06-04T08:00:00Z,25.4100,-80.9640,1.5,1.99,1111122 
ENP,ioos.station.NOAA.NDBC:TPEF1:1,2016-06-04T09:00:00Z,25.4100,-80.9640,1.5,1.99,1111122 
ENP,ioos.station.NOAA.NDBC:TPEF1:1,2016-06-04T10:00:00Z,25.4100,-80.9640,1.5,2.0,1111122 
ENP,ioos.station.NOAA.NDBC:TPEF1:1,2016-06-04T11:00:00Z,25.4100,-80.9640,1.5,2.0,1111122 
ENP,ioos.station.NOAA.NDBC:TPEF1:1,2016-06-04T12:00:00Z,25.4100,-80.9640,1.5,2.0,1111122 
ENP,ioos.station.NOAA.NDBC:TPEF1:1,2016-06-04T13:00:00Z,25.4100,-80.9640,1.5,2.01,1111122 
ENP,ioos.station.NOAA.NDBC:TPEF1:1,2016-06-04T14:00:00Z,25.4100,-80.9640,1.5,2.02,1111122 
ENP,ioos.station.NOAA.NDBC:TPEF1:1,2016-06-04T15:00:00Z,25.4100,-80.9640,1.5,2.05,1111122 
ENP,ioos.station.NOAA.NDBC:TPEF1:1,2016-06-04T16:00:00Z,25.4100,-80.9640,1.5,2.07,1111122 
ENP,ioos.station.NOAA.NDBC:TPEF1:1,2016-06-04T17:00:00Z,25.4100,-80.9640,1.5,2.07,1111122 
ENP,ioos.station.NOAA.NDBC:TPEF1:1,2016-06-04T18:00:00Z,25.4100,-80.9640,1.5,2.09,1111122 
ENP,ioos.station.NOAA.NDBC:TPEF1:1,2016-06-04T19:00:00Z,25.4100,-80.9640,1.5,2.1,1111122 
ENP,ioos.station.NOAA.NDBC:TPEF1:1,2016-06-04T20:00:00Z,25.4100,-80.9640,1.5,2.1,1111122 
ENP,ioos.station.NOAA.NDBC:TPEF1:1,2016-06-04T21:00:00Z,25.4100,-80.9640,1.5,2.12,1111122 
ENP,ioos.station.NOAA.NDBC:TPEF1:1,2016-06-04T22:00:00Z,25.4100,-80.9640,1.5,2.08,1111122 
ENP,ioos.station.NOAA.NDBC:TPEF1:1,2016-06-04T23:00:00Z,25.4100,-80.9640,1.5,2.07,1111122 
ENP,ioos.station.NOAA.NDBC:TPEF1:1,2016-06-05T00:00:00Z,25.4100,-80.9640,1.5,2.07,1111122 
ENP,ioos.station.NOAA.NDBC:TPEF1:1,2016-06-05T03:00:00Z,25.4100,-80.9640,1.5,2.09,1111122 
ENP,ioos.station.NOAA.NDBC:TPEF1:1,2016-06-05T06:00:00Z,25.4100,-80.9640,1.5,2.13,1111122 
ENP,ioos.station.NOAA.NDBC:TPEF1:1,2016-06-05T07:00:00Z,25.4100,-80.9640,1.5,2.11,1111122 
ENP,ioos.station.NOAA.NDBC:TPEF1:1,2016-06-05T08:00:00Z,25.4100,-80.9640,1.5,1.83,1111122 
ENP,ioos.station.NOAA.NDBC:TPEF1:1,2016-06-05T10:00:00Z,25.4100,-80.9640,1.5,1.81,1111122 
ENP,ioos.station.NOAA.NDBC:TPEF1:1,2016-06-05T11:00:00Z,25.4100,-80.9640,1.5,1.82,1111122 
ENP,ioos.station.NOAA.NDBC:TPEF1:1,2016-06-05T12:00:00Z,25.4100,-80.9640,1.5,1.82,1111122 
ENP,ioos.station.NOAA.NDBC:TPEF1:1,2016-06-05T13:00:00Z,25.4100,-80.9640,1.5,1.83,1111122 
ENP,ioos.station.NOAA.NDBC:TPEF1:1,2016-06-05T14:00:00Z,25.4100,-80.9640,1.5,1.84,1111122 
ENP,ioos.station.NOAA.NDBC:TPEF1:1,2016-06-05T15:00:00Z,25.4100,-80.9640,1.5,1.86,1111122 
ENP,ioos.station.NOAA.NDBC:TPEF1:1,2016-06-05T16:00:00Z,25.4100,-80.9640,1.5,1.88,1111122 
ENP,ioos.station.NOAA.NDBC:TPEF1:1,2016-06-05T17:00:00Z,25.4100,-80.9640,1.5,1.92,1111122 
ENP,ioos.station.NOAA.NDBC:TPEF1:1,2016-06-05T18:00:00Z,25.4100,-80.9640,1.5,1.95,1111122 
ENP,ioos.station.NOAA.NDBC:TPEF1:1,2016-06-05T19:00:00Z,25.4100,-80.9640,1.5,1.96,1111122 
ENP,ioos.station.NOAA.NDBC:TPEF1:1,2016-06-05T20:00:00Z,25.4100,-80.9640,1.5,1.97,1111122 
ENP,ioos.station.NOAA.NDBC:TPEF1:1,2016-06-05T21:00:00Z,25.4100,-80.9640,1.5,1.97,1111122 
ENP,ioos.station.NOAA.NDBC:TPEF1:1,2016-06-05T22:00:00Z,25.4100,-80.9640,1.5,1.97,1111122 
ENP,ioos.station.NOAA.NDBC:TPEF1:1,2016-06-05T23:00:00Z,25.4100,-80.9640,1.5,1.97,1111122 
ENP,ioos.station.NOAA.NDBC:TPEF1:1,2016-06-06T00:00:00Z,25.4100,-80.9640,1.5,1.97,1111122 
ENP,ioos.station.NOAA.NDBC:TPEF1:1,2016-06-06T02:00:00Z,25.4100,-80.9640,1.5,1.98,1111122 
ENP,ioos.station.NOAA.NDBC:TPEF1:1,2016-06-06T03:00:00Z,25.4100,-80.9640,1.5,1.97,1111122 
ENP,ioos.station.NOAA.NDBC:TPEF1:1,2016-06-06T05:00:00Z,25.4100,-80.9640,1.5,1.97,1111122 
ENP,ioos.station.NOAA.NDBC:TPEF1:1,2016-06-06T06:00:00Z,25.4100,-80.9640,1.5,1.98,1111122 
ENP,ioos.station.NOAA.NDBC:TPEF1:1,2016-06-06T07:00:00Z,25.4100,-80.9640,1.5,1.98,1111122 
ENP,ioos.station.NOAA.NDBC:TPEF1:1,2016-06-06T08:00:00Z,25.4100,-80.9640,1.5,1.99,1111122 
ENP,ioos.station.NOAA.NDBC:TPEF1:1,2016-06-06T09:00:00Z,25.4100,-80.9640,1.5,2.01,1111122 
ENP,ioos.station.NOAA.NDBC:TPEF1:1,2016-06-06T10:00:00Z,25.4100,-80.9640,1.5,2.01,1111122 
ENP,ioos.station.NOAA.NDBC:TPEF1:1,2016-06-06T11:00:00Z,25.4100,-80.9640,1.5,2.0,1111122 
ENP,ioos.station.NOAA.NDBC:TPEF1:1,2016-06-06T12:00:00Z,25.4100,-80.9640,1.5,1.99,1111122 
ENP,ioos.station.NOAA.NDBC:TPEF1:1,2016-06-06T13:00:00Z,25.4100,-80.9640,1.5,1.98,1111122 
ENP,ioos.station.NOAA.NDBC:TPEF1:1,2016-06-06T14:00:00Z,25.4100,-80.9640,1.5,1.98,1111122 
ENP,ioos.station.NOAA.NDBC:TPEF1:1,2016-06-06T15:00:00Z,25.4100,-80.9640,1.5,1.98,1111122 
ENP,ioos.station.NOAA.NDBC:TPEF1:1,2016-06-06T16:00:00Z,25.4100,-80.9640,1.5,1.98,1111122 
ENP,ioos.station.NOAA.NDBC:TPEF1:1,2016-06-06T17:00:00Z,25.4100,-80.9640,1.5,1.98,1111122 
ENP,ioos.station.NOAA.NDBC:TPEF1:1,2016-06-06T18:00:00Z,25.4100,-80.9640,1.5,2.0,1111122 
ENP,ioos.station.NOAA.NDBC:TPEF1:1,2016-06-06T19:00:00Z,25.4100,-80.9640,1.5,1.99,1111122 
ENP,ioos.station.NOAA.NDBC:TPEF1:1,2016-06-06T21:00:00Z,25.4100,-80.9640,1.5,1.94,1111122 
ENP,ioos.station.NOAA.NDBC:TPEF1:1,2016-06-06T22:00:00Z,25.4100,-80.9640,1.5,1.92,1111122 
ENP,ioos.station.NOAA.NDBC:TPEF1:1,2016-06-06T23:00:00Z,25.4100,-80.9640,1.5,1.94,1111122 
ENP,ioos.station.NOAA.NDBC:TPEF1:1,2016-06-07T00:00:00Z,25.4100,-80.9640,1.5,1.95,1111122 
ENP,ioos.station.NOAA.NDBC:TPEF1:1,2016-06-07T03:00:00Z,25.4100,-80.9640,1.5,2.0,1111122 
ENP,ioos.station.NOAA.NDBC:TPEF1:1,2016-06-07T06:00:00Z,25.4100,-80.9640,1.5,2.08,1111122 
ENP,ioos.station.NOAA.NDBC:TPEF1:1,2016-06-07T07:00:00Z,25.4100,-80.9640,1.5,2.15,1111122 
ENP,ioos.station.NOAA.NDBC:TPEF1:1,2016-06-07T08:00:00Z,25.4100,-80.9640,1.5,2.24,1111122 
ENP,ioos.station.NOAA.NDBC:TPEF1:1,2016-06-07T09:00:00Z,25.4100,-80.9640,1.5,2.31,1111122 
ENP,ioos.station.NOAA.NDBC:TPEF1:1,2016-06-07T10:00:00Z,25.4100,-80.9640,1.5,2.35,1111122 
ENP,ioos.station.NOAA.NDBC:TPEF1:1,2016-06-07T11:00:00Z,25.4100,-80.9640,1.5,2.37,1111122 
ENP,ioos.station.NOAA.NDBC:TPEF1:1,2016-06-07T12:00:00Z,25.4100,-80.9640,1.5,2.39,1111122 
ENP,ioos.station.NOAA.NDBC:TPEF1:1,2016-06-07T13:00:00Z,25.4100,-80.9640,1.5,2.39,1111122 
ENP,ioos.station.NOAA.NDBC:TPEF1:1,2016-06-07T14:00:00Z,25.4100,-80.9640,1.5,2.35,1111122 
ENP,ioos.station.NOAA.NDBC:TPEF1:1,2016-06-07T15:00:00Z,25.4100,-80.9640,1.5,2.32,1111122 
ENP,ioos.station.NOAA.NDBC:TPEF1:1,2016-06-07T16:00:00Z,25.4100,-80.9640,1.5,2.28,1111122 
ENP,ioos.station.NOAA.NDBC:TPEF1:1,2016-06-07T17:00:00Z,25.4100,-80.9640,1.5,2.32,1111122 
ENP,ioos.station.NOAA.NDBC:TPEF1:1,2016-06-07T18:00:00Z,25.4100,-80.9640,1.5,2.36,1111122 
ENP,ioos.station.NOAA.NDBC:TPEF1:1,2016-06-07T19:00:00Z,25.4100,-80.9640,1.5,2.65,1111122 
ENP,ioos.station.NOAA.NDBC:TPEF1:1,2016-06-07T20:00:00Z,25.4100,-80.9640,1.5,2.74,1111122 
ENP,ioos.station.NOAA.NDBC:TPEF1:1,2016-06-07T21:00:00Z,25.4100,-80.9640,1.5,2.78,1111122 
ENP,ioos.station.NOAA.NDBC:TPEF1:1,2016-06-07T22:00:00Z,25.4100,-80.9640,1.5,2.86,1111122 
ENP,ioos.station.NOAA.NDBC:TPEF1:1,2016-06-07T23:00:00Z,25.4100,-80.9640,1.5,2.9,1111122 
ENP,ioos.station.NOAA.NDBC:TPEF1:1,2016-06-08T00:00:00Z,25.4100,-80.9640,1.5,2.96,1111122 
ENP,ioos.station.NOAA.NDBC:TPEF1:1,2016-06-08T03:00:00Z,25.4100,-80.9640,1.5,2.87,1111122 
ENP,ioos.station.NOAA.NDBC:TPEF1:1,2016-06-08T06:00:00Z,25.4100,-80.9640,1.5,2.68,1111122 
ENP,ioos.station.NOAA.NDBC:TPEF1:1,2016-06-08T07:00:00Z,25.4100,-80.9640,1.5,2.61,1111122 
ENP,ioos.station.NOAA.NDBC:TPEF1:1,2016-06-08T08:00:00Z,25.4100,-80.9640,1.5,2.71,1111122 
ENP,ioos.station.NOAA.NDBC:TPEF1:1,2016-06-08T09:00:00Z,25.4100,-80.9640,1.5,2.84,1111122 
ENP,ioos.station.NOAA.NDBC:TPEF1:1,2016-06-08T10:00:00Z,25.4100,-80.9640,1.5,2.93,1111122 
ENP,ioos.station.NOAA.NDBC:TPEF1:1,2016-06-08T11:00:00Z,25.4100,-80.9640,1.5,3.03,1111122 
ENP,ioos.station.NOAA.NDBC:TPEF1:1,2016-06-08T12:00:00Z,25.4100,-80.9640,1.5,3.09,1111122 
ENP,ioos.station.NOAA.NDBC:TPEF1:1,2016-06-08T13:00:00Z,25.4100,-80.9640,1.5,3.05,1111122 
ENP,ioos.station.NOAA.NDBC:TPEF1:1,2016-06-08T14:00:00Z,25.4100,-80.9640,1.5,2.97,1111122 
ENP,ioos.station.NOAA.NDBC:TPEF1:1,2016-06-08T15:00:00Z,25.4100,-80.9640,1.5,2.93,1111122 
ENP,ioos.station.NOAA.NDBC:TPEF1:1,2016-06-08T16:00:00Z,25.4100,-80.9640,1.5,2.9,1111122 
ENP,ioos.station.NOAA.NDBC:TPEF1:1,2016-06-08T17:00:00Z,25.4100,-80.9640,1.5,2.93,1111122 
ENP,ioos.station.NOAA.NDBC:TPEF1:1,2016-06-08T18:00:00Z,25.4100,-80.9640,1.5,2.97,1111122 
ENP,ioos.station.NOAA.NDBC:TPEF1:1,2016-06-08T19:00:00Z,25.4100,-80.9640,1.5,3.22,1111122 
ENP,ioos.station.NOAA.NDBC:TPEF1:1,2016-06-08T20:00:00Z,25.4100,-80.9640,1.5,3.36,1111122 
ENP,ioos.station.NOAA.NDBC:TPEF1:1,2016-06-08T21:00:00Z,25.4100,-80.9640,1.5,3.52,1111122 
ENP,ioos.station.NOAA.NDBC:TPEF1:1,2016-06-08T22:00:00Z,25.4100,-80.9640,1.5,3.65,1111122 
ENP,ioos.station.NOAA.NDBC:TPEF1:1,2016-06-08T23:00:00Z,25.4100,-80.9640,1.5,3.74,1111122 
ENP,ioos.station.NOAA.NDBC:TPEF1:1,2016-06-09T00:00:00Z,25.4100,-80.9640,1.5,3.78,1111122 
ENP,ioos.station.NOAA.NDBC:TPEF1:1,2016-06-09T03:00:00Z,25.4100,-80.9640,1.5,3.56,1111122 
ENP,ioos.station.NOAA.NDBC:TPEF1:1,2016-06-09T06:00:00Z,25.4100,-80.9640,1.5,2.84,1111122 
ENP,ioos.station.NOAA.NDBC:TPEF1:1,2016-06-09T07:00:00Z,25.4100,-80.9640,1.5,2.67,1111122 
ENP,ioos.station.NOAA.NDBC:TPEF1:1,2016-06-09T08:00:00Z,25.4100,-80.9640,1.5,2.63,1111122 
ENP,ioos.station.NOAA.NDBC:TPEF1:1,2016-06-09T09:00:00Z,25.4100,-80.9640,1.5,2.94,1111122 
ENP,ioos.station.NOAA.NDBC:TPEF1:1,2016-06-09T10:00:00Z,25.4100,-80.9640,1.5,3.27,1111122 
ENP,ioos.station.NOAA.NDBC:TPEF1:1,2016-06-09T11:00:00Z,25.4100,-80.9640,1.5,3.46,1111122 
ENP,ioos.station.NOAA.NDBC:TPEF1:1,2016-06-09T12:00:00Z,25.4100,-80.9640,1.5,3.59,1111122 
ENP,ioos.station.NOAA.NDBC:TPEF1:1,2016-06-09T13:00:00Z,25.4100,-80.9640,1.5,3.56,1111122 
ENP,ioos.station.NOAA.NDBC:TPEF1:1,2016-06-09T14:00:00Z,25.4100,-80.9640,1.5,3.39,1111122 
ENP,ioos.station.NOAA.NDBC:TPEF1:1,2016-06-09T15:00:00Z,25.4100,-80.9640,1.5,3.25,1111122 
ENP,ioos.station.NOAA.NDBC:TPEF1:1,2016-06-09T16:00:00Z,25.4100,-80.9640,1.5,3.06,1111122 
ENP,ioos.station.NOAA.NDBC:TPEF1:1,2016-06-09T17:00:00Z,25.4100,-80.9640,1.5,2.89,1111122 
ENP,ioos.station.NOAA.NDBC:TPEF1:1,2016-06-09T18:00:00Z,25.4100,-80.9640,1.5,2.71,1111122 
ENP,ioos.station.NOAA.NDBC:TPEF1:1,2016-06-09T19:00:00Z,25.4100,-80.9640,1.5,2.78,1111122 
ENP,ioos.station.NOAA.NDBC:TPEF1:1,2016-06-09T20:00:00Z,25.4100,-80.9640,1.5,3.34,1111122 
ENP,ioos.station.NOAA.NDBC:TPEF1:1,2016-06-09T21:00:00Z,25.4100,-80.9640,1.5,3.73,1111122 
ENP,ioos.station.NOAA.NDBC:TPEF1:1,2016-06-09T22:00:00Z,25.4100,-80.9640,1.5,3.79,1111122 
ENP,ioos.station.NOAA.NDBC:TPEF1:1,2016-06-09T23:00:00Z,25.4100,-80.9640,1.5,3.79,1111122 
ENP,ioos.station.NOAA.NDBC:TPEF1:1,2016-06-10T00:00:00Z,25.4100,-80.9640,1.5,3.78,1111122 
ENP,ioos.station.NOAA.NDBC:TPEF1:1,2016-06-10T03:00:00Z,25.4100,-80.9640,1.5,3.47,1111122 
ENP,ioos.station.NOAA.NDBC:TPEF1:1,2016-06-10T06:00:00Z,25.4100,-80.9640,1.5,2.98,1111122 
ENP,ioos.station.NOAA.NDBC:TPEF1:1,2016-06-10T07:00:00Z,25.4100,-80.9640,1.5,2.76,1111122 
ENP,ioos.station.NOAA.NDBC:TPEF1:1,2016-06-10T08:00:00Z,25.4100,-80.9640,1.5,2.63,1111122 
ENP,ioos.station.NOAA.NDBC:TPEF1:1,2016-06-10T09:00:00Z,25.4100,-80.9640,1.5,2.78,1111122 
ENP,ioos.station.NOAA.NDBC:TPEF1:1,2016-06-10T10:00:00Z,25.4100,-80.9640,1.5,3.26,1111122 
ENP,ioos.station.NOAA.NDBC:TPEF1:1,2016-06-10T11:00:00Z,25.4100,-80.9640,1.5,3.84,1111122 
ENP,ioos.station.NOAA.NDBC:TPEF1:1,2016-06-10T12:00:00Z,25.4100,-80.9640,1.5,4.54,1111122 
ENP,ioos.station.NOAA.NDBC:TPEF1:1,2016-06-10T13:00:00Z,25.4100,-80.9640,1.5,4.62,1111122 
ENP,ioos.station.NOAA.NDBC:TPEF1:1,2016-06-10T14:00:00Z,25.4100,-80.9640,1.5,4.38,1111122 
ENP,ioos.station.NOAA.NDBC:TPEF1:1,2016-06-10T15:00:00Z,25.4100,-80.9640,1.5,3.91,1111122 
ENP,ioos.station.NOAA.NDBC:TPEF1:1,2016-06-10T16:00:00Z,25.4100,-80.9640,1.5,3.79,1111122 
ENP,ioos.station.NOAA.NDBC:TPEF1:1,2016-06-10T17:00:00Z,25.4100,-80.9640,1.5,3.6,1111122 
ENP,ioos.station.NOAA.NDBC:TPEF1:1,2016-06-10T18:00:00Z,25.4100,-80.9640,1.5,3.61,1111122 
ENP,ioos.station.NOAA.NDBC:TPEF1:1,2016-06-10T19:00:00Z,25.4100,-80.9640,1.5,3.58,1111122 
ENP,ioos.station.NOAA.NDBC:TPEF1:1,2016-06-10T20:00:00Z,25.4100,-80.9640,1.5,3.53,1111122 
ENP,ioos.station.NOAA.NDBC:TPEF1:1,2016-06-10T21:00:00Z,25.4100,-80.9640,1.5,3.4,1111122 
ENP,ioos.station.NOAA.NDBC:TPEF1:1,2016-06-10T22:00:00Z,25.4100,-80.9640,1.5,3.38,1111122 
ENP,ioos.station.NOAA.NDBC:TPEF1:1,2016-06-10T23:00:00Z,25.4100,-80.9640,1.5,3.38,1111122 
ENP,ioos.station.NOAA.NDBC:TPEF1:1,2016-06-11T00:00:00Z,25.4100,-80.9640,1.5,3.38,1111122 
ENP,ioos.station.NOAA.NDBC:TPEF1:1,2016-06-11T03:00:00Z,25.4100,-80.9640,1.5,3.37,1111122 
ENP,ioos.station.NOAA.NDBC:TPEF1:1,2016-06-11T06:00:00Z,25.4100,-80.9640,1.5,3.3,1111122 
ENP,ioos.station.NOAA.NDBC:TPEF1:1,2016-06-11T07:00:00Z,25.4100,-80.9640,1.5,3.23,1111122 
ENP,ioos.station.NOAA.NDBC:TPEF1:1,2016-06-11T08:00:00Z,25.4100,-80.9640,1.5,2.77,1111122 
ENP,ioos.station.NOAA.NDBC:TPEF1:1,2016-06-11T09:00:00Z,25.4100,-80.9640,1.5,2.78,1111122 
ENP,ioos.station.NOAA.NDBC:TPEF1:1,2016-06-11T10:00:00Z,25.4100,-80.9640,1.5,3.2,1111122 
ENP,ioos.station.NOAA.NDBC:TPEF1:1,2016-06-11T11:00:00Z,25.4100,-80.9640,1.5,3.76,1111122 
ENP,ioos.station.NOAA.NDBC:TPEF1:1,2016-06-11T12:00:00Z,25.4100,-80.9640,1.5,4.02,1111122 
ENP,ioos.station.NOAA.NDBC:TPEF1:1,2016-06-11T13:00:00Z,25.4100,-80.9640,1.5,4.24,1111122 
ENP,ioos.station.NOAA.NDBC:TPEF1:1,2016-06-11T14:00:00Z,25.4100,-80.9640,1.5,4.23,1111122 
ENP,ioos.station.NOAA.NDBC:TPEF1:1,2016-06-11T15:00:00Z,25.4100,-80.9640,1.5,4.23,1111122 
ENP,ioos.station.NOAA.NDBC:TPEF1:1,2016-06-11T16:00:00Z,25.4100,-80.9640,1.5,4.06,1111122 
ENP,ioos.station.NOAA.NDBC:TPEF1:1,2016-06-11T17:00:00Z,25.4100,-80.9640,1.5,4.02,1111122 
ENP,ioos.station.NOAA.NDBC:TPEF1:1,2016-06-11T18:00:00Z,25.4100,-80.9640,1.5,3.62,1111122 
ENP,ioos.station.NOAA.NDBC:TPEF1:1,2016-06-11T19:00:00Z,25.4100,-80.9640,1.5,3.62,1111122 
ENP,ioos.station.NOAA.NDBC:TPEF1:1,2016-06-11T20:00:00Z,25.4100,-80.9640,1.5,3.39,1111122 
ENP,ioos.station.NOAA.NDBC:TPEF1:1,2016-06-11T21:00:00Z,25.4100,-80.9640,1.5,3.38,1111122 
ENP,ioos.station.NOAA.NDBC:TPEF1:1,2016-06-11T22:00:00Z,25.4100,-80.9640,1.5,3.62,1111122 
ENP,ioos.station.NOAA.NDBC:TPEF1:1,2016-06-11T23:00:00Z,25.4100,-80.9640,1.5,3.69,1111122 
ENP,ioos.station.NOAA.NDBC:TPEF1:1,2016-06-12T00:00:00Z,25.4100,-80.9640,1.5,3.73,1111122 
ENP,ioos.station.NOAA.NDBC:TPEF1:1,2016-06-12T03:00:00Z,25.4100,-80.9640,1.5,3.79,1111122 
ENP,ioos.station.NOAA.NDBC:TPEF1:1,2016-06-12T06:00:00Z,25.4100,-80.9640,1.5,3.62,1111122 
ENP,ioos.station.NOAA.NDBC:TPEF1:1,2016-06-12T07:00:00Z,25.4100,-80.9640,1.5,3.5,1111122 
ENP,ioos.station.NOAA.NDBC:TPEF1:1,2016-06-12T08:00:00Z,25.4100,-80.9640,1.5,3.3,1111122 
ENP,ioos.station.NOAA.NDBC:TPEF1:1,2016-06-12T10:00:00Z,25.4100,-80.9640,1.5,3.14,1111122 
ENP,ioos.station.NOAA.NDBC:TPEF1:1,2016-06-12T11:00:00Z,25.4100,-80.9640,1.5,3.33,1111122 
ENP,ioos.station.NOAA.NDBC:TPEF1:1,2016-06-12T12:00:00Z,25.4100,-80.9640,1.5,3.15,1111122 
ENP,ioos.station.NOAA.NDBC:TPEF1:1,2016-06-12T13:00:00Z,25.4100,-80.9640,1.5,3.12,1111122 
ENP,ioos.station.NOAA.NDBC:TPEF1:1,2016-06-12T14:00:00Z,25.4100,-80.9640,1.5,3.12,1111122 
ENP,ioos.station.NOAA.NDBC:TPEF1:1,2016-06-12T15:00:00Z,25.4100,-80.9640,1.5,3.12,1111122 
ENP,ioos.station.NOAA.NDBC:TPEF1:1,2016-06-12T16:00:00Z,25.4100,-80.9640,1.5,3.15,1111122 
ENP,ioos.station.NOAA.NDBC:TPEF1:1,2016-06-12T17:00:00Z,25.4100,-80.9640,1.5,3.14,1111122 
ENP,ioos.station.NOAA.NDBC:TPEF1:1,2016-06-12T18:00:00Z,25.4100,-80.9640,1.5,3.16,1111122 
ENP,ioos.station.NOAA.NDBC:TPEF1:1,2016-06-12T19:00:00Z,25.4100,-80.9640,1.5,3.16,1111122 
ENP,ioos.station.NOAA.NDBC:TPEF1:1,2016-06-12T20:00:00Z,25.4100,-80.9640,1.5,3.17,1111122 
ENP,ioos.station.NOAA.NDBC:TPEF1:1,2016-06-12T21:00:00Z,25.4100,-80.9640,1.5,3.16,1111122 
ENP,ioos.station.NOAA.NDBC:TPEF1:1,2016-06-12T22:00:00Z,25.4100,-80.9640,1.5,3.12,1111122 
ENP,ioos.station.NOAA.NDBC:TPEF1:1,2016-06-12T23:00:00Z,25.4100,-80.9640,1.5,3.05,1111122 
ENP,ioos.station.NOAA.NDBC:TPEF1:1,2016-06-13T00:00:00Z,25.4100,-80.9640,1.5,3.05,1111122 
ENP,ioos.station.NOAA.NDBC:TPEF1:1,2016-06-13T02:00:00Z,25.4100,-80.9640,1.5,3.06,1111122 
ENP,ioos.station.NOAA.NDBC:TPEF1:1,2016-06-13T03:00:00Z,25.4100,-80.9640,1.5,3.02,1111122 
ENP,ioos.station.NOAA.NDBC:TPEF1:1,2016-06-13T05:00:00Z,25.4100,-80.9640,1.5,3.04,1111122 
ENP,ioos.station.NOAA.NDBC:TPEF1:1,2016-06-13T06:00:00Z,25.4100,-80.9640,1.5,3.04,1111122 
ENP,ioos.station.NOAA.NDBC:TPEF1:1,2016-06-13T07:00:00Z,25.4100,-80.9640,1.5,3.04,1111122 
ENP,ioos.station.NOAA.NDBC:TPEF1:1,2016-06-13T08:00:00Z,25.4100,-80.9640,1.5,3.01,1111122 
ENP,ioos.station.NOAA.NDBC:TPEF1:1,2016-06-13T10:00:00Z,25.4100,-80.9640,1.5,3.0,1111122 
ENP,ioos.station.NOAA.NDBC:TPEF1:1,2016-06-13T11:00:00Z,25.4100,-80.9640,1.5,2.99,1111122 
ENP,ioos.station.NOAA.NDBC:TPEF1:1,2016-06-13T12:00:00Z,25.4100,-80.9640,1.5,2.97,1111122 
ENP,ioos.station.NOAA.NDBC:TPEF1:1,2016-06-13T13:00:00Z,25.4100,-80.9640,1.5,2.75,1111122 
ENP,ioos.station.NOAA.NDBC:TPEF1:1,2016-06-13T14:00:00Z,25.4100,-80.9640,1.5,2.65,1111122 
ENP,ioos.station.NOAA.NDBC:TPEF1:1,2016-06-13T15:00:00Z,25.4100,-80.9640,1.5,2.63,1111122 
ENP,ioos.station.NOAA.NDBC:TPEF1:1,2016-06-13T16:00:00Z,25.4100,-80.9640,1.5,2.63,1111122 
ENP,ioos.station.NOAA.NDBC:TPEF1:1,2016-06-13T17:00:00Z,25.4100,-80.9640,1.5,2.63,1111122 
ENP,ioos.station.NOAA.NDBC:TPEF1:1,2016-06-13T18:00:00Z,25.4100,-80.9640,1.5,2.64,1111122 
ENP,ioos.station.NOAA.NDBC:TPEF1:1,2016-06-13T19:00:00Z,25.4100,-80.9640,1.5,2.64,1111122 
ENP,ioos.station.NOAA.NDBC:TPEF1:1,2016-06-13T20:00:00Z,25.4100,-80.9640,1.5,2.62,1111122 
ENP,ioos.station.NOAA.NDBC:TPEF1:1,2016-06-13T21:00:00Z,25.4100,-80.9640,1.5,2.63,1111122 
ENP,ioos.station.NOAA.NDBC:TPEF1:1,2016-06-13T22:00:00Z,25.4100,-80.9640,1.5,2.63,1111122 
ENP,ioos.station.NOAA.NDBC:TPEF1:1,2016-06-13T23:00:00Z,25.4100,-80.9640,1.5,2.62,1111122 
ENP,ioos.station.NOAA.NDBC:TPEF1:1,2016-06-14T00:00:00Z,25.4100,-80.9640,1.5,2.63,1111122 
ENP,ioos.station.NOAA.NDBC:TPEF1:1,2016-06-14T03:00:00Z,25.4100,-80.9640,1.5,2.63,1111122 
ENP,ioos.station.NOAA.NDBC:TPEF1:1,2016-06-14T06:00:00Z,25.4100,-80.9640,1.5,2.59,1111122 
ENP,ioos.station.NOAA.NDBC:TPEF1:1,2016-06-14T07:00:00Z,25.4100,-80.9640,1.5,2.59,1111122 